Location: Bieg
(49.3499°N, 10.3835°E)
Time: 20:47:11
(UTC+00:00)

Meteor 1-4 Rocket - Pass Details

Date: 23 May 2024
Orbit: 356 x 377 km, 81.2° (Epoch: 25 June)

Event Time Altitude Azimuth Distance (km) Brightness Sun altitude
Exits shadow 00:55:36 55° 180° (S) 437 1.9 -16.5°
Maximum altitude 00:56:08 83° 100° (E) 367 1.9 -16.5°
Drops below altitude 10° 00:59:03 10° 13° (NNE) 1,351 6.1 -16.3°
Sets 01:01:02 0° 13° (NNE) 2,207 7.5 -16.2°
